Regional Weather Roundup
Issued by NWS Little Rock, AR

Home | Current Version | Previous Version | Text Only | Print | Product List | Glossary Off
Versions: 1 2 3 4 5 6 7 8 9 10 11 12 13 14 15 16 17 18 19 20 21 22 23 24 25 26 27

000
ASUS44 KLZK 040705
RWRLZK

WEATHER ROUNDUP FOR ARKANSAS
NATIONAL WEATHER SERVICE LITTLE ROCK AR
200 AM CDT WED MAY 04 2016

NOTE: "FAIR" INDICATES FEW OR NO CLOUDS BELOW 12,000 FEET WITH NO
SIGNIFICANT WEATHER AND/OR OBSTRUCTIONS TO VISIBILITY.

ARZ001-003-010-029-040800-
NORTHWEST ARKANSAS

CITY           SKY/WX    TMP DP  RH WIND       PRES   REMARKS
FAYETTEVILLE   CLEAR     44  44 100 S6        30.01F
FORT SMITH     CLEAR     53  46  77 SW3       30.01F
HARRISON       CLEAR     51  40  65 SW3       29.98F
BENTONVILLE    CLEAR    N/A N/A N/A SW3       29.99F
ROGERS         CLEAR     52  43  71 SW8       30.00F
SILOAM SPGS    CLEAR     48  37  66 S5        30.01F
HIGHFILL       CLEAR     50  44  80 SW7       29.99F
$$

ARZ004-005-016-040800-
NORTH CENTRAL ARKANSAS

CITY           SKY/WX    TMP DP  RH WIND       PRES   REMARKS
BATESVILLE     CLEAR     48  45  87 NW5       29.97F
FLIPPIN        PTCLDY   N/A N/A N/A CALM      29.94F
MTN HOME       CLEAR     47  42  83 CALM      29.96S
$$

ARZ040-041-040800-
WEST CENTRAL ARKANSAS

CITY           SKY/WX    TMP DP  RH WIND       PRES   REMARKS
MENA           CLEAR     48  46  93 CALM      30.03F
MOUNT IDA      CLEAR     48  45  89 CALM      29.99F
$$

ARZ009-017-025-026-028-040800-
NORTHEAST ARKANSAS

CITY           SKY/WX    TMP DP  RH WIND       PRES   REMARKS
CORNING          N/A     50  50 100 W5        29.94F
JONESBORO      CLEAR     54  48  80 W7        29.94F
NEWPORT        CLEAR     54  48  80 W7        29.97F
WALNUT RIDGE   CLEAR     52  43  71 W3        29.94F
BLYTHEVILLE    CLEAR     54  51  90 SW6       29.93F
$$

ARZ022-023-033-042-044-040800-
CENTRAL ARKANSAS

CITY           SKY/WX    TMP DP  RH WIND       PRES   REMARKS
LITTLE ROCK    CLEAR     54  49  83 W8        29.99F
N LITTLE ROCK    N/A     56  48  75 W3        29.98F
JACKSONVILLE   CLEAR     49  47  92 SW6       29.98F
SEARCY         CLEAR     48  46  93 CALM      29.99F
HOT SPRINGS    CLEAR     51  48  89 W5        30.01F
RUSSELLVILLE   CLEAR     48  47  96 CALM      29.99F
$$

ARZ036-040800-
EAST ARKANSAS

CITY           SKY/WX    TMP DP  RH WIND       PRES   REMARKS
WEST MEMPHIS   CLEAR     54  50  86 CALM      29.94F
$$

ARZ050-053-066-070-073-040800-
SOUTHWEST ARKANSAS

CITY           SKY/WX    TMP DP  RH WIND       PRES   REMARKS
ARKADELPHIA    FAIR      56  56 100 CALM      30.01F
CAMDEN         PTCLDY    52  48  87 CALM      30.01F
TEXARKANA      CLOUDY    54  51  90 CALM      30.03F
EL DORADO      CLEAR     51  50  96 CALM      30.02F
DE QUEEN       CLEAR     49  48  97 CALM      30.02F
$$

ARZ056-057-069-040800-
SOUTHEAST ARKANSAS

CITY           SKY/WX    TMP DP  RH WIND       PRES   REMARKS
PINE BLUFF     PTCLDY    54  48  80 W5        29.99F
STUTTGART      CLEAR     55  48  76 W7        29.98F
MONTICELLO     CLEAR     53  50  89 W3        29.99F

$$






USA.gov is the U.S. government's official web portal to all federal, state and local government web resources and services.